Briefing drone pour Annecy (LFLP)

Rechercher une autre localisation

Conditions de vol :


Nous sommes le : Jeudi 09 février 2023
Il est 23:57 UTC (00:57 LT)

Lever de soleil : 06:20 UTC (07:20 LT)
Coucher de soleil : 17:18 UTC (18:18 LT)

Météo

L'essentiel des conditions de vol

VIGILANCE MÉTÉO FRANCE - Haute-Savoie (74)
Pas de vigilances particulieres
CARTE TEMSI
CARTES DES FRONTS
METAR de LFLP
LFLP 082330Z AUTO 00000KT 5000 BR NSC M04/M05 Q1031

Date d'émission: 08/02/2023
Heure d'émission: 23:30 UTC
Vent: Calme
Visibilité horizontale: 5000 m
Plafond : Pas de nuages significatifs (NSC)
Température: -4 °C
Point de rosée: -5 °C
Humidité: 93%
Pression (QNH): 1031 hPa
Conditions: Brume
TAF de LFLP
AMD LFLP 081900Z 0818/0915 CNL

Conditions prévues :

Heure d'émission : Bulletin éffectué le 08 à 18:00 UTC
Prévision : Valide du 08 a 18:00 UTC au 09 a 15:00 UTC
Nuages : à 0ft (0 m)
WEBCAM POUR ANNECY

Réglementation

Voler en sécurité

CARTES AERONAUTIQUE 1/500.000
CARTE AZBA (Reseau basse altitude)
CARTES VAC (LFLP)
SUP AIP




Chargement des AIP...
NOTAM (ANNECY + Terrain à proximité / FIR )




Chargement des NOTAMS...
CONTACT PREFECTURE 74
Haute-Savoie (74) : [email protected]


Avertissement : Les données mises à disposition sont indicatives. Oxygène Drone ne pourra être tenu responsable de dégâts causés aux biens et aux personnes.